Flag for Canada Weather past 2 weeks in Yellowknife, Northwest Territories, Canada

Now
25 °F

Partly sunny.


Feels Like: 19 °F
Forecast: 0 / 21 °F
Wind: 5 mph from Southeast

Location: Yellowknife

Current Time: Mar 29, 2015 at 4:32:42 PM

Latest Report: Mar 29, 2015 at 4:00 PM


Visibility: 15 mi

Pressure: 29.88 "Hg

Humidity: 59%

Dew point: 12 °F

Location of YellowknifeLocation

Historic Weather in Yellowknife — Graph

°F

Yellowknife temperature yesterday

Maximum temperature yesterday: 36 °F (at 2:00 PM)
Minimum temperature yesterday: 16 °F (at 11:00 PM)
Average temperature yesterday: 27 °F

Past Weeks' High & Low Weather Summary

 TemperatureHumidityPressure
High45 °F (Mar 27, 6:00 PM)93% (Mar 27, 7:00 AM)30.56 "Hg (Mar 27, 7:00 AM)
Low-22 °F (Mar 16, 7:00 AM)33% (Mar 21, 3:00 PM)29.36 "Hg (Mar 14, 3:00 PM)
Average5 °F61%30.17 "Hg
* Reported Mar 14 3:00 PM — Mar 29 3:00 PM, Yellowknife, Weather by CustomWeather, © 2015

Note: Actual official high and low records may vary slightly from our data, if they occured in-between our weather recording intervals... More about our weather records

Advertising

Yellowknife weather history for previous 24 hours

 ConditionsComfort  
Time TempWeatherWind HumidityBarometerVisibility
3:00 PM
Sun, Mar 29
25 °FPartly sunny.3 mph50%29.89 "Hg15 mi
2:00 PM23 °FPartly sunny.5 mph58%29.90 "Hg15 mi
1:00 PM21 °FPassing clouds.6 mph54%29.90 "Hg15 mi
12:00 PM18 °FScattered clouds.5 mph62%29.91 "Hg15 mi
11:00 AM14 °FPassing clouds.6 mph67%29.92 "Hg15 mi
10:00 AM10 °FPassing clouds.6 mph72%29.92 "Hg15 mi
9:00 AM5 °FPassing clouds.5 mph85%29.93 "Hg15 mi
8:00 AM3 °FPassing clouds.5 mph85%29.93 "Hg15 mi
7:00 AM3 °FPassing clouds.6 mph85%29.93 "Hg15 mi
6:00 AM1 °FPassing clouds.3 mph85%29.92 "Hg15 mi
5:00 AM7 °FPassing clouds.6 mph85%29.91 "Hg15 mi
4:00 AM7 °FClear.6 mph78%29.90 "Hg15 mi
3:00 AM5 °FClear.No wind92%29.90 "Hg15 mi
2:00 AM9 °FClear.5 mph85%29.88 "Hg15 mi
1:00 AM12 °FClear.3 mph79%29.88 "Hg15 mi
12:00 AM14 °FClear.6 mph79%29.86 "Hg15 mi
11:00 PM
Sat, Mar 28
16 °FClear.8 mph79%29.85 "Hg15 mi
10:00 PM19 °FClear.9 mph68%29.83 "Hg15 mi
9:00 PM23 °FPassing clouds.9 mph63%29.81 "Hg15 mi
8:00 PM27 °FPassing clouds.10 mph54%29.79 "Hg15 mi
7:00 PM30 °FPassing clouds.12 mph47%29.77 "Hg15 mi
6:00 PM32 °FPassing clouds.15 mph51%29.75 "Hg15 mi
5:00 PM34 °FPassing clouds.16 mph48%29.73 "Hg15 mi
4:00 PM36 °FPassing clouds.16 mph48%29.70 "Hg15 mi
Weather by CustomWeather, © 2015

See weather overviewHow to use our weather pages